K4NSC-13 Weather Reports


time (UTC)temp
F
wind
direction
speed
knots
gust
knots
rain 1hr
in
rain 24hr
in
rain mn
in
humidity
%
barometer
mb
20260503201521 71 127 2.6 5.2 0.00 0.00 0.00 46 1016.9
20260503200518 71 136 2.6 3.5 0.00 0.00 0.00 44 1017.0
20260503195538 71 152 1.7 4.3 0.00 0.00 0.00 45 1017.2
20260503194518 71 121 0.9 3.5 0.00 0.00 0.00 44 1017.3
20260503193519 70 132 1.7 4.3 0.00 0.00 0.00 45 1017.5
20260503192522 70 119 2.6 6.1 0.00 0.00 0.00 45 1017.8
20260503191522 70 131 2.6 6.1 0.00 0.00 0.00 44 1018.0
20260503190522 70 151 2.6 5.2 0.00 0.00 0.00 44 1018.2
20260503185523 70 184 2.6 4.3 0.00 0.00 0.00 45 1018.5
20260503184523 69 341 2.6 5.2 0.00 0.00 0.00 45 1018.6
20260503183522 69 137 3.5 6.1 0.00 0.00 0.00 47 1018.8
20260503182525 69 180 2.6 5.2 0.00 0.00 0.00 46 1018.9
20260503181603 68 108 2.6 4.3 0.00 0.00 0.00 47 1019.1
20260503180517 68 239 2.6 7.0 0.00 0.00 0.00 47 1019.1
20260503175517 67 146 1.7 4.3 0.00 0.00 0.00 47 1019.2
20260503174517 67 142 2.6 6.1 0.00 0.00 0.00 48 1019.3
20260503173520 67 253 1.7 3.5 0.00 0.00 0.00 48 1019.4
20260503172517 66 119 1.7 3.5 0.00 0.00 0.00 49 1019.6
20260503171523 66 129 2.6 6.1 0.00 0.00 0.00 50 1019.7
20260503170521 67 305 1.7 4.3 0.00 0.00 0.00 51 1019.8
20260503150523 62 263 0.9 2.6 0.00 0.03 0.00 56 1021.2
20260503130524 53 9 0.9 1.7 0.00 0.12 0.00 90 1020.9
20260503110527 45 310 0.0 0.0 0.00 0.44 0.00 99 1020.0
20260503081529 46 333 0.0 0.9 0.00 0.93 0.00 99 1018.0
20260503080529 46 337 0.9 0.9 0.00 0.97 0.00 99 1018.0
20260503072531 48 0.0 0.0 0.00 1.03 0.00 99 1017.7
20260503071529 48 0.0 0.0 0.00 1.04 0.00 99 1017.6
20260503070529 48 0.0 0.0 0.00 1.05 0.00 99 1017.6
20260503054531 50 326 0.0 0.9 0.00 1.06 0.00 98 1017.2
20260503053531 50 338 0.0 0.9 0.00 1.06 0.00 98 1017.1
20260503052531 50 359 0.0 0.9 0.00 1.06 0.00 97 1017.1
20260503051551 51 0.0 0.0 0.00 1.06 0.00 97 1017.1
20260503050517 51 333 0.0 0.9 0.00 1.06 0.00 97 1017.0
20260503045517 52 326 0.9 0.9 0.00 1.06 0.00 97 1016.8
20260503044517 52 304 0.0 0.0 0.00 1.06 0.00 97 1016.7
20260503043637 52 301 0.0 0.9 0.00 1.06 0.00 97 1016.4
20260503042537 53 324 0.0 0.9 0.00 1.06 0.00 96 1016.5
20260503041532 53 0.0 0.0 0.00 1.06 0.00 96 1016.6
20260503040533 53 330 0.0 0.9 0.00 1.06 0.00 96 1016.7
20260503035532 53 307 0.0 0.0 0.00 1.06 1.06 95 1016.6
20260503034518 53 309 0.0 0.9 0.00 1.06 1.06 94 1016.5
20260503033521 53 350 0.0 0.9 0.00 1.06 1.06 94 1016.4
20260503032538 53 0.0 0.0 0.00 1.06 1.06 94 1016.5
20260503031538 53 345 0.0 0.9 0.00 1.06 1.06 94 1016.6
20260503030524 53 92 0.0 0.9 0.00 1.06 1.06 94 1016.5
20260503025519 53 0.0 0.0 0.00 1.06 1.06 94 1016.4
20260503024519 53 133 0.0 0.9 0.00 1.06 1.06 95 1016.1
20260503023518 54 133 0.0 0.9 0.00 1.06 1.06 95 1016.0
20260503022519 54 0.0 0.0 0.00 1.06 1.06 95 1015.6
20260503021528 54 199 0.0 0.9 0.00 1.06 1.06 94 1015.5
20260503020519 54 0.0 0.0 0.00 1.06 1.06 94 1015.2
20260503015519 54 0.0 0.0 0.00 1.06 1.06 94 1015.2
20260503014520 53 0.0 0.0 0.00 1.06 1.06 93 1015.1
20260503013520 53 0.0 0.0 0.00 1.06 1.06 93 1014.9
20260503012600 53 0.0 0.0 0.00 1.06 1.06 92 1014.7
20260503011520 53 0.0 0.0 0.00 1.06 1.06 92 1014.6
20260503010520 53 12 0.0 0.9 0.00 1.06 1.06 92 1014.5
20260503005525 53 333 0.0 0.9 0.00 1.06 1.06 91 1014.5
20260503004521 53 313 0.9 0.9 0.00 1.06 1.06 92 1014.3
20260503003526 53 309 0.9 0.9 0.00 1.06 1.06 91 1014.2
20260503002521 54 331 0.9 0.9 0.00 1.06 1.06 90 1014.1
20260503001521 54 319 0.9 0.9 0.00 1.06 1.06 87 1013.9
20260503000541 55 301 0.0 0.9 0.00 1.06 1.06 86 1013.8
20260502235541 57 293 0.0 0.9 0.00 1.06 1.06 81 1013.6
20260502234522 58 341 0.0 0.9 0.00 1.06 1.06 79 1013.5
20260502233521 59 359 0.0 0.9 0.00 1.06 1.06 76 1013.2
20260502232526 60 341 0.9 1.7 0.00 1.06 1.06 73 1013.1
20260502231522 60 329 0.9 1.7 0.00 1.06 1.06 73 1012.9
20260502230542 59 333 0.9 1.7 0.00 1.06 1.06 73 1013.1
20260502225543 59 324 0.9 2.6 0.00 1.06 1.06 75 1013.3
20260502224542 59 101 0.9 1.7 0.00 1.06 1.06 75 1013.3
20260502223524 59 351 0.9 2.6 0.00 1.06 1.06 75 1013.1
20260502222523 58 62 1.7 2.6 0.00 1.06 1.06 75 1013.1
20260502221524 58 81 0.9 2.6 0.00 1.06 1.06 75 1013.0
20260502220523 58 65 0.9 2.6 0.00 1.06 1.06 75 1013.0
20260502215524 58 71 0.9 2.6 0.00 1.06 1.06 77 1013.0
20260502214524 58 29 0.9 2.6 0.00 1.06 1.06 75 1013.0
20260502213524 58 11 0.9 2.6 0.00 1.06 1.06 75 1012.8
20260502212524 58 337 1.7 4.3 0.00 1.06 1.06 74 1012.7
20260502211524 58 357 0.9 3.5 0.00 1.06 1.06 75 1012.8
20260502210524 58 42 0.9 3.5 0.00 1.06 1.06 74 1012.9
20260502205525 57 349 0.9 3.5 0.00 1.06 1.06 75 1013.0
20260502204519 57 354 1.7 4.3 0.00 1.06 1.06 73 1013.0
20260502203518 57 56 1.7 7.8 0.00 1.06 1.06 74 1013.0
20260502202519 57 90 2.6 4.3 0.00 1.06 1.06 75 1013.1